Showing default

PALAPA B1, 14134

Orbit data source: Space-Track

PALAPA B1, 14134 is a payload satellite owned by Perumtel (ID) in GEO that was launched on Sat, 18 Jun 1983 UTC via an SPACE SHUTTLE launch vehicle from the Air Force Eastern Test Range (AFETR). Payload-class satellites include a variety of spacecraft equipped with specific instruments for various scientific and technological missions. These include communications satellites like Starlink; space stations such as the ISS; scientific satellites like the Hubble; Earth observation satellites from companies like Planet Labs, Umbra, and HawkEye 360; GPS; miniature CubeSats for education and research; and military/defense satellites.

Not visible in the next 10 days
Identifier
14134, 1983-059C
Orbit
GEO
Country
Flag of UnknownUnknown / INDO
Related business
Manufacturer
Hughes
Mission
Non-operational spacecraft
Bus & Motor
HS-376, TE-M-700-5
Mass
~1,202 kg wet, ~500 kg dry
Launch date (UTC)
1983-06-18 (43 years ago)
Launch vehicle
SPACE SHUTTLE
Launch site
Air Force Eastern Test Range (AFETR)
Object type
Payload
Rocket body
Debris
Shape & HBR
Unknown
Radar Cross Section
Large (>1 m²)

Expand to show TLE details & history
Last TLE update: 11 hours ago

TLE from 11 hours ago
0 PALAPA B1
1 14134U 83059C   26062.88238912  .00000120  00000-0  00000-0 0  9998
2 14134  11.7198 330.2002 0001638  45.0629 144.7695  1.00155557119732
Epoch: 2026-03-03T21:10Z
TLE epoch observation values (Epoch: 2026-03-03T21:10:38.419Z)
Latitude
-1.98874°
Longitude
40.56272°
Altitude
35,824.71 km
Speed
3.073 km/s
True Right ascension
10h 39m 30s
True Declination
-1° 59' 12"
Sunlit
Object was in daylight at epoch
Visualization orbit readout
Latitude
Unknown
Longitude
Unknown
Altitude
Unknown
Speed
Unknown
Apparent Right ascension
Unknown
Apparent Declination
Unknown
Sunlit
N/A
Visualization observer readout
Local Sidereal Time
11:31:14
Azimuth
Unknown
Elevation
Unknown
Doppler factor
Unknown
Orbital elements
Apogee altitude
35,827.126 km
Perigee altitude
35,813.302 km
Semi-major axis
42,198.351 km
Eccentricity
0.00016
Inclination
11.7198°
RAAN
330.2002°
Arg. of periapsis
45.0629°
True anomaly
144.78033°
Mean anomaly
144.7695°
Eccentric anomaly
144.77491°
Mean motion
0.25038 °/min
Orbital period
1,437.81 mins
BSTAR
0
Loading maneuver chart data...
Computing Atmospheric mass density...
Loading historical data...
Loading historical data...
Loading historical data...
Loading historical data...
Loading historical data...
Loading historical data...
Loading historical data...

Documentation

Showing up to 5 results
|